Погода в Скале

Польша     50°13′54″N   19°51′09″E
темп.,
°C
ветер,
м/с
пор.,
м/с
влажн.,
%
обл.,
%
осадки,
мм/ч
давл.,
гПа
погр.,
м
3 марта, ср
ср301:00+2з11850 0.0 103422
04:00+2з23870 0.0 103222
07:00+2з23860 0.0 103126
10:00+8зюз23610 0.0 1030237
13:00+12зюз23440 0.0 1028409
16:00+11юз234919 0.0 1025117
19:00+7зюз48689 0.0 1025142
22:00+6зюз613720 0.0 1023339
4 марта, чт
чт401:00+4зюз5127919 0.0 1022283
04:00+3зюз5128339 0.0 1019242
07:00+4зюз5128164 0.0 1018267
10:00+8з7127088 0.0 1017721
13:00+10з7106162 0.0 10151068
16:00+10з596220 0.0 10131250
19:00+7сз487945 0.1 1013406
22:00+5с4593100 3.2 1013311
5 марта, пт
пт501:00+2с4596100 6.2 1013235
04:000с4797100 2.8 1013399
07:00−1ссв4797100 5.5 1015366
10:00−1ссв5786100 0.9 1017662
13:00+1ссв5666100 0.9 10191106
16:00+1с456344 0.0 10201411
19:00−2ссз237254 0.1 102354
22:00−2сз237414 0.0 102576
6 марта, сб
сб601:00−2сз367530 0.0 1026150
04:00−3сз367929 0.0 1027169
07:00−2сз487860 0.2 1029499
10:000ссз56668 0.1 10311040
13:00+1ссз454557 0.2 10311723
16:000сз354595 0.0 10311645
19:00−2зсз225856 0.0 103235
22:00−3зюз34620 0.0 1031101
7 марта, вс
вс701:00−3зюз49660 0.0 1030296
04:00−3зюз511630 0.0 1028443
07:00−2зюз612580 0.0 1027509
10:00+1зюз710445 0.0 1026912
13:00+3з7104122 0.0 10231056
16:00+3зюз694711 0.0 10211001
19:00−1зюз4106211 0.0 1020214
22:00−1зюз4116222 0.0 1020279